Time,TemperatureF,DewpointF,PressureIn,WindDirection,WindDirectionDegrees,WindSpeedMPH,WindSpeedGustMPH,Humidity,HourlyPrecipIn,Conditions,Clouds,dailyrainin,SoftwareType,DateUTC
2014-08-30 00:00:00,85.8,74.9,30.10,ENE,68,0.0,2.0,70,0.00,,---,0.00,VWS V13.01,2014-08-30 04:00:00,
2014-08-30 00:03:00,85.8,74.9,30.10,ESE,112,4.3,4.3,70,0.00,,---,0.00,VWS V13.01,2014-08-30 04:03:00,
2014-08-30 00:07:00,85.8,74.9,30.11,East,90,3.4,4.3,70,0.00,,---,0.00,VWS V13.01,2014-08-30 04:07:00,
2014-08-30 00:13:00,85.8,74.9,30.11,East,90,2.2,2.2,70,0.00,,---,0.00,VWS V13.01,2014-08-30 04:13:00,
2014-08-30 00:19:00,85.8,74.9,30.11,East,90,1.1,2.5,70,0.00,,---,0.00,VWS V13.01,2014-08-30 04:19:00,
2014-08-30 00:21:00,85.8,74.9,30.11,ESE,112,0.0,0.0,70,0.00,,---,0.00,VWS V13.01,2014-08-30 04:21:00,
2014-08-30 00:23:00,85.8,74.9,30.11,ESE,112,0.0,0.0,70,0.00,,---,0.00,VWS V13.01,2014-08-30 04:23:00,
2014-08-30 00:29:00,85.8,74.9,30.11,ESE,112,1.6,1.6,70,0.00,,---,0.00,VWS V13.01,2014-08-30 04:29:00,
2014-08-30 00:35:00,85.6,74.7,30.11,ESE,112,2.2,2.5,70,0.00,,---,0.00,VWS V13.01,2014-08-30 04:35:00,
2014-08-30 00:40:00,85.6,74.7,30.11,ESE,112,0.0,5.1,70,0.00,,---,0.00,VWS V13.01,2014-08-30 04:40:00,
2014-08-30 00:45:00,85.6,74.7,30.11,ESE,112,2.5,2.5,70,0.00,,---,0.00,VWS V13.01,2014-08-30 04:45:00,
2014-08-30 00:50:00,85.6,74.7,30.11,ENE,68,0.0,2.5,70,0.00,,---,0.00,VWS V13.01,2014-08-30 04:50:00,
2014-08-30 00:57:00,85.6,74.7,30.11,ESE,112,2.2,2.2,70,0.00,,---,0.00,VWS V13.01,2014-08-30 04:57:00,
2014-08-30 01:03:00,85.6,74.7,30.10,ESE,112,0.7,0.7,70,0.00,,---,0.00,VWS V13.01,2014-08-30 05:03:00,
2014-08-30 01:09:00,85.5,74.6,30.10,ESE,112,0.0,1.3,70,0.00,,---,0.00,VWS V13.01,2014-08-30 05:09:00,
2014-08-30 01:15:00,85.5,74.6,30.10,SE,135,1.1,3.1,70,0.00,,---,0.00,VWS V13.01,2014-08-30 05:15:00,
2014-08-30 01:21:00,85.3,74.4,30.10,SE,135,3.8,3.8,70,0.00,,---,0.00,VWS V13.01,2014-08-30 05:21:00,
2014-08-30 01:27:00,85.3,74.4,30.10,East,90,1.8,3.1,70,0.00,,---,0.00,VWS V13.01,2014-08-30 05:27:00,
2014-08-30 01:33:00,85.3,74.4,30.10,East,90,0.9,0.9,70,0.00,,---,0.00,VWS V13.01,2014-08-30 05:33:00,
2014-08-30 01:39:00,85.3,74.4,30.10,East,90,2.2,2.2,70,0.00,,---,0.00,VWS V13.01,2014-08-30 05:39:00,
2014-08-30 01:45:00,85.3,74.4,30.10,ENE,68,0.0,7.2,70,0.00,,---,0.00,VWS V13.01,2014-08-30 05:45:00,
2014-08-30 01:50:00,85.3,74.4,30.09,ESE,112,4.9,4.9,70,0.00,,---,0.00,VWS V13.01,2014-08-30 05:50:00,
2014-08-30 01:55:00,85.3,74.4,30.09,East,90,0.0,4.9,70,0.00,,---,0.00,VWS V13.01,2014-08-30 05:55:00,
2014-08-30 02:01:00,85.3,74.8,30.09,East,90,0.0,0.0,71,0.00,,---,0.00,VWS V13.01,2014-08-30 06:01:00,
2014-08-30 02:07:00,85.3,74.8,30.09,ESE,112,4.3,4.3,71,0.00,,---,0.00,VWS V13.01,2014-08-30 06:07:00,
2014-08-30 02:13:00,85.3,74.8,30.08,East,90,0.9,4.3,71,0.00,,---,0.00,VWS V13.01,2014-08-30 06:13:00,
2014-08-30 02:19:00,85.1,74.6,30.08,East,90,0.0,0.0,71,0.00,,---,0.00,VWS V13.01,2014-08-30 06:19:00,
2014-08-30 02:25:00,85.1,74.6,30.08,SE,135,0.0,0.0,71,0.00,,---,0.00,VWS V13.01,2014-08-30 06:25:00,
2014-08-30 02:30:00,85.3,74.8,30.08,ESE,112,5.1,6.0,71,0.00,,---,0.00,VWS V13.01,2014-08-30 06:30:00,
2014-08-30 02:35:00,85.1,74.6,30.08,ENE,68,1.1,5.1,71,0.00,,---,0.00,VWS V13.01,2014-08-30 06:35:00,
2014-08-30 02:41:00,85.1,75.1,30.08,East,90,0.0,5.1,72,0.00,,---,0.00,VWS V13.01,2014-08-30 06:41:00,
2014-08-30 02:47:00,84.9,74.5,30.08,ESE,112,2.2,2.2,71,0.00,,---,0.00,VWS V13.01,2014-08-30 06:47:00,
2014-08-30 02:53:00,84.9,74.5,30.08,ESE,112,2.2,2.2,71,0.00,,---,0.00,VWS V13.01,2014-08-30 06:53:00,
2014-08-30 02:59:00,84.9,74.5,30.08,East,90,3.6,3.6,71,0.00,,---,0.00,VWS V13.01,2014-08-30 06:59:00,
2014-08-30 03:05:00,84.9,74.5,30.08,East,90,3.6,3.6,71,0.00,,---,0.00,VWS V13.01,2014-08-30 07:05:00,
2014-08-30 03:10:00,84.9,74.5,30.07,ESE,112,0.0,3.6,71,0.00,,---,0.00,VWS V13.01,2014-08-30 07:10:00,
2014-08-30 03:15:00,84.9,74.5,30.07,East,90,0.0,0.0,71,0.00,,---,0.00,VWS V13.01,2014-08-30 07:15:00,
2014-08-30 03:21:00,84.9,74.9,30.07,ESE,112,0.0,0.0,72,0.00,,---,0.00,VWS V13.01,2014-08-30 07:21:00,
2014-08-30 03:27:00,84.9,74.9,30.07,ESE,112,0.0,0.0,72,0.00,,---,0.00,VWS V13.01,2014-08-30 07:27:00,
2014-08-30 03:33:00,84.9,74.9,30.06,SE,135,4.3,4.3,72,0.00,,---,0.00,VWS V13.01,2014-08-30 07:33:00,
2014-08-30 03:39:00,84.9,74.5,30.06,ESE,112,6.7,6.7,71,0.00,,---,0.00,VWS V13.01,2014-08-30 07:39:00,
2014-08-30 03:45:00,84.9,74.5,30.06,East,90,0.0,6.7,71,0.00,,---,0.00,VWS V13.01,2014-08-30 07:45:00,
2014-08-30 03:50:00,84.9,74.5,30.06,East,90,4.0,4.0,71,0.00,,---,0.00,VWS V13.01,2014-08-30 07:50:00,
2014-08-30 03:55:00,84.9,74.5,30.06,East,90,1.6,4.0,71,0.00,,---,0.00,VWS V13.01,2014-08-30 07:55:00,
2014-08-30 04:01:00,84.9,74.5,30.06,East,90,1.6,1.6,71,0.00,,---,0.00,VWS V13.01,2014-08-30 08:01:00,
2014-08-30 04:07:00,84.9,74.5,30.05,SE,135,0.0,0.0,71,0.00,,---,0.00,VWS V13.01,2014-08-30 08:07:00,
2014-08-30 04:13:00,84.9,74.5,30.05,East,90,10.3,10.3,71,0.00,,---,0.00,VWS V13.01,2014-08-30 08:13:00,
2014-08-30 04:19:00,84.9,74.5,30.05,ESE,112,2.0,6.5,71,0.00,,---,0.00,VWS V13.01,2014-08-30 08:19:00,
2014-08-30 04:25:00,84.9,74.5,30.05,ENE,68,0.0,2.0,71,0.00,,---,0.00,VWS V13.01,2014-08-30 08:25:00,
2014-08-30 04:30:00,84.9,74.9,30.06,East,90,5.1,5.1,72,0.00,,---,0.00,VWS V13.01,2014-08-30 08:30:00,
2014-08-30 04:36:00,84.9,74.1,30.06,East,90,5.4,5.4,70,0.00,,---,0.00,VWS V13.01,2014-08-30 08:36:00,
2014-08-30 04:42:00,84.9,74.5,30.06,East,90,5.4,5.4,71,0.00,,---,0.00,VWS V13.01,2014-08-30 08:42:00,
2014-08-30 04:48:00,84.9,74.1,30.06,ESE,112,0.0,0.0,70,0.00,,---,0.00,VWS V13.01,2014-08-30 08:48:00,
2014-08-30 04:54:00,84.9,74.1,30.06,ESE,112,1.3,1.3,70,0.00,,---,0.00,VWS V13.01,2014-08-30 08:54:00,
2014-08-30 05:00:00,84.9,74.1,30.06,SSE,158,0.0,1.3,70,0.00,,---,0.00,VWS V13.01,2014-08-30 09:00:00,
2014-08-30 05:05:00,84.9,74.1,30.06,SE,135,3.1,3.1,70,0.00,,---,0.00,VWS V13.01,2014-08-30 09:05:00,
2014-08-30 05:10:00,85.1,73.8,30.07,East,90,1.3,3.1,69,0.00,,---,0.00,VWS V13.01,2014-08-30 09:10:00,
2014-08-30 05:15:00,85.1,73.8,30.07,SSE,158,1.6,1.6,69,0.00,,---,0.00,VWS V13.01,2014-08-30 09:15:00,
2014-08-30 05:20:00,85.1,73.8,30.07,ESE,112,0.0,1.6,69,0.00,,---,0.00,VWS V13.01,2014-08-30 09:20:00,
2014-08-30 05:26:00,85.1,73.8,30.07,SE,135,0.0,0.0,69,0.00,,---,0.00,VWS V13.01,2014-08-30 09:26:00,
2014-08-30 05:32:00,85.1,74.2,30.07,ESE,112,1.8,1.8,70,0.00,,---,0.00,VWS V13.01,2014-08-30 09:32:00,
2014-08-30 05:38:00,85.1,73.8,30.07,ESE,112,3.8,3.8,69,0.00,,---,0.00,VWS V13.01,2014-08-30 09:38:00,
2014-08-30 05:44:00,85.1,73.8,30.07,East,90,3.8,3.8,69,0.00,,---,0.00,VWS V13.01,2014-08-30 09:44:00,
2014-08-30 05:50:00,85.1,73.8,30.07,ESE,112,0.0,3.6,69,0.00,,---,0.00,VWS V13.01,2014-08-30 09:50:00,
2014-08-30 05:55:00,85.3,74.0,30.07,SSE,158,1.3,1.3,69,0.00,,---,0.00,VWS V13.01,2014-08-30 09:55:00,
2014-08-30 06:02:00,85.3,74.0,30.07,East,90,5.1,5.1,69,0.00,,---,0.00,VWS V13.01,2014-08-30 10:02:00,
2014-08-30 06:08:00,85.1,74.2,30.08,East,90,0.0,0.0,70,0.00,,---,0.00,VWS V13.01,2014-08-30 10:08:00,
2014-08-30 06:14:00,85.1,74.2,30.08,ESE,112,3.4,3.4,70,0.00,,---,0.00,VWS V13.01,2014-08-30 10:14:00,
2014-08-30 06:20:00,85.1,74.2,30.08,East,90,0.0,0.0,70,0.00,,---,0.00,VWS V13.01,2014-08-30 10:20:00,
2014-08-30 06:25:00,85.1,74.2,30.08,ESE,112,0.0,0.0,70,0.00,,---,0.00,VWS V13.01,2014-08-30 10:25:00,
2014-08-30 06:30:00,85.1,74.2,30.08,East,90,0.9,0.9,70,0.00,,---,0.00,VWS V13.01,2014-08-30 10:30:00,
2014-08-30 06:36:00,85.1,74.6,30.08,ESE,112,1.3,1.3,71,0.00,,---,0.00,VWS V13.01,2014-08-30 10:36:00,
2014-08-30 06:42:00,85.1,74.6,30.09,East,90,2.7,2.7,71,0.00,,---,0.00,VWS V13.01,2014-08-30 10:42:00,
2014-08-30 06:48:00,85.1,74.6,30.08,East,90,4.0,4.0,71,0.00,,---,0.00,VWS V13.01,2014-08-30 10:48:00,
2014-08-30 06:54:00,85.1,74.6,30.09,ESE,112,0.0,3.1,71,0.00,,---,0.00,VWS V13.01,2014-08-30 10:54:00,
2014-08-30 07:00:00,85.1,74.6,30.09,SE,135,0.0,0.0,71,0.00,,---,0.00,VWS V13.01,2014-08-30 11:00:00,
2014-08-30 07:06:00,85.1,74.6,30.09,SE,135,0.0,0.0,71,0.00,,---,0.00,VWS V13.01,2014-08-30 11:06:00,
2014-08-30 07:12:00,85.1,74.6,30.10,ESE,112,4.3,4.3,71,0.00,,---,0.00,VWS V13.01,2014-08-30 11:12:00,
2014-08-30 07:18:00,85.3,74.8,30.10,ESE,112,0.0,0.0,71,0.00,,---,0.00,VWS V13.01,2014-08-30 11:18:00,
2014-08-30 07:24:00,85.1,74.6,30.10,ESE,112,0.0,0.0,71,0.00,,---,0.00,VWS V13.01,2014-08-30 11:24:00,
2014-08-30 07:30:00,85.1,74.6,30.10,East,90,3.4,3.4,71,0.00,,---,0.00,VWS V13.01,2014-08-30 11:30:00,
2014-08-30 07:35:00,85.1,74.6,30.10,East,90,4.5,4.5,71,0.00,,---,0.00,VWS V13.01,2014-08-30 11:35:00,
2014-08-30 07:40:00,85.1,74.6,30.10,SE,135,2.2,2.7,71,0.00,,---,0.00,VWS V13.01,2014-08-30 11:40:00,
2014-08-30 07:47:00,85.3,74.8,30.10,East,90,2.5,2.5,71,0.00,,---,0.00,VWS V13.01,2014-08-30 11:47:00,
2014-08-30 07:53:00,85.3,74.8,30.10,SSE,158,1.8,2.5,71,0.00,,---,0.00,VWS V13.01,2014-08-30 11:53:00,
2014-08-30 07:59:00,85.3,74.8,30.10,South,180,0.0,0.0,71,0.00,,---,0.00,VWS V13.01,2014-08-30 11:59:00,
2014-08-30 08:05:00,85.3,74.8,30.10,SE,135,4.0,6.9,71,0.00,,---,0.00,VWS V13.01,2014-08-30 12:05:00,
2014-08-30 08:10:00,85.5,75.0,30.10,East,90,0.0,4.0,71,0.00,,---,0.00,VWS V13.01,2014-08-30 12:10:00,
2014-08-30 08:17:00,85.6,75.2,30.10,SE,135,4.5,4.5,71,0.00,,---,0.00,VWS V13.01,2014-08-30 12:17:00,
2014-08-30 08:23:00,85.8,74.9,30.10,East,90,0.0,6.3,70,0.00,,---,0.00,VWS V13.01,2014-08-30 12:23:00,
2014-08-30 08:29:00,86.0,75.1,30.11,ESE,112,5.1,5.1,70,0.00,,---,0.00,VWS V13.01,2014-08-30 12:29:00,
2014-08-30 08:35:00,86.2,74.4,30.10,ESE,112,6.5,6.5,68,0.00,,---,0.00,VWS V13.01,2014-08-30 12:35:00,
2014-08-30 08:41:00,86.4,74.6,30.10,ESE,112,3.4,5.1,68,0.00,,---,0.00,VWS V13.01,2014-08-30 12:41:00,
2014-08-30 08:47:00,86.4,74.6,30.10,SE,135,0.0,3.4,68,0.00,,---,0.00,VWS V13.01,2014-08-30 12:47:00,
2014-08-30 08:53:00,86.9,75.1,30.10,East,90,0.0,0.0,68,0.00,,---,0.00,VWS V13.01,2014-08-30 12:53:00,
2014-08-30 08:59:00,87.4,75.1,30.10,SE,135,0.0,0.0,67,0.00,,---,0.00,VWS V13.01,2014-08-30 12:59:00,
2014-08-30 09:05:00,87.6,75.3,30.10,South,180,3.4,6.5,67,0.00,,---,0.00,VWS V13.01,2014-08-30 13:05:00,
2014-08-30 09:10:00,88.2,75.4,30.10,East,90,8.7,11.2,66,0.00,,---,0.00,VWS V13.01,2014-08-30 13:10:00,
2014-08-30 09:17:00,88.9,76.1,30.10,ENE,68,8.3,8.3,66,0.00,,---,0.00,VWS V13.01,2014-08-30 13:17:00,
2014-08-30 09:23:00,88.9,76.1,30.10,East,90,11.2,11.2,66,0.00,,---,0.00,VWS V13.01,2014-08-30 13:23:00,
2014-08-30 09:29:00,89.4,76.6,30.10,East,90,1.3,1.3,66,0.00,,---,0.00,VWS V13.01,2014-08-30 13:29:00,
2014-08-30 09:35:00,89.4,76.6,30.10,East,90,0.0,5.1,66,0.00,,---,0.00,VWS V13.01,2014-08-30 13:35:00,
2014-08-30 09:40:00,89.4,76.6,30.11,SE,135,3.4,3.4,66,0.00,,---,0.00,VWS V13.01,2014-08-30 13:40:00,
2014-08-30 09:45:00,89.4,76.1,30.11,ESE,112,6.5,9.8,65,0.00,,---,0.00,VWS V13.01,2014-08-30 13:45:00,
2014-08-30 09:50:00,89.8,76.4,30.11,SE,135,3.4,6.5,65,0.00,,---,0.00,VWS V13.01,2014-08-30 13:50:00,
2014-08-30 09:57:00,90.5,77.1,30.10,SE,135,0.0,0.0,65,0.00,,---,0.00,VWS V13.01,2014-08-30 13:57:00,
2014-08-30 10:03:00,91.0,77.2,30.10,NE,45,2.5,7.6,64,0.00,,---,0.00,VWS V13.01,2014-08-30 14:03:00,
2014-08-30 10:09:00,91.2,77.3,30.11,ENE,68,6.5,11.0,64,0.00,,---,0.00,VWS V13.01,2014-08-30 14:09:00,
2014-08-30 10:15:00,91.6,77.2,30.11,SE,135,0.0,7.4,63,0.00,,---,0.00,VWS V13.01,2014-08-30 14:15:00,
2014-08-30 10:20:00,91.9,77.6,30.11,ESE,112,5.1,5.8,63,0.00,,---,0.00,VWS V13.01,2014-08-30 14:20:00,
2014-08-30 10:26:00,92.1,77.2,30.11,ESE,112,6.5,6.9,62,0.00,,---,0.00,VWS V13.01,2014-08-30 14:26:00,
2014-08-30 10:32:00,92.1,77.2,30.11,East,90,6.7,6.7,62,0.00,,---,0.00,VWS V13.01,2014-08-30 14:32:00,
2014-08-30 10:38:00,92.3,76.9,30.11,East,90,3.1,6.5,61,0.00,,---,0.00,VWS V13.01,2014-08-30 14:38:00,
2014-08-30 10:44:00,92.3,76.9,30.12,SE,135,7.8,7.8,61,0.00,,---,0.00,VWS V13.01,2014-08-30 14:44:00,
2014-08-30 10:50:00,92.1,77.2,30.12,ESE,112,7.2,7.8,62,0.00,,---,0.00,VWS V13.01,2014-08-30 14:50:00,
2014-08-30 10:55:00,92.1,77.2,30.12,ENE,68,2.0,7.2,62,0.00,,---,0.00,VWS V13.01,2014-08-30 14:55:00,
2014-08-30 11:02:00,93.0,77.6,30.12,South,180,0.0,7.6,61,0.00,,---,0.00,VWS V13.01,2014-08-30 15:02:00,
2014-08-30 11:08:00,93.7,77.8,30.12,SSE,158,0.0,0.0,60,0.00,,---,0.00,VWS V13.01,2014-08-30 15:08:00,
2014-08-30 11:14:00,93.6,77.1,30.12,South,180,0.0,1.6,59,0.00,,---,0.00,VWS V13.01,2014-08-30 15:14:00,
2014-08-30 11:20:00,93.6,77.6,30.12,SE,135,2.5,6.5,60,0.00,,---,0.00,VWS V13.01,2014-08-30 15:20:00,
2014-08-30 11:25:00,93.7,77.2,30.12,SE,135,5.1,5.1,59,0.00,,---,0.00,VWS V13.01,2014-08-30 15:25:00,
2014-08-30 11:30:00,93.4,76.9,30.12,ESE,112,6.9,6.9,59,0.00,,---,0.00,VWS V13.01,2014-08-30 15:30:00,
2014-08-30 11:35:00,93.4,77.4,30.12,East,90,11.4,11.4,60,0.00,,---,0.00,VWS V13.01,2014-08-30 15:35:00,
2014-08-30 11:42:00,93.0,77.1,30.12,ESE,112,3.8,3.8,60,0.00,,---,0.00,VWS V13.01,2014-08-30 15:42:00,
2014-08-30 11:48:00,92.7,76.8,30.12,ESE,112,3.8,3.8,60,0.00,,---,0.00,VWS V13.01,2014-08-30 15:48:00,
2014-08-30 11:54:00,92.5,76.6,30.12,East,90,0.0,0.0,60,0.00,,---,0.00,VWS V13.01,2014-08-30 15:54:00,
2014-08-30 12:00:00,92.1,76.2,30.12,SE,135,1.8,1.8,60,0.00,,---,0.00,VWS V13.01,2014-08-30 16:00:00,
2014-08-30 12:06:00,92.3,76.4,30.12,ESE,112,0.0,0.0,60,0.00,,---,0.00,VWS V13.01,2014-08-30 16:06:00,
2014-08-30 12:12:00,92.7,76.8,30.12,ESE,112,7.2,7.2,60,0.00,,---,0.00,VWS V13.01,2014-08-30 16:12:00,